Wind_Speed
10 12 13 14 14 15 16 16 17 17 16 14 11 9 7 6 6 7 8 8 7 7 7 5 4 3 2 0 1 3 3 5 6 6 5 5 7 8 8 10 10 9 8 8 7 7 8 7 4 1 8 7 6 9 8 6 6 5 2 4 2 2 2 2 2 1 3 2 1 5 11 12 7 10 13 12 14 17 16 14 15 15 18 21 23 24 22 21
10 12 13 13 14 14 16 16 17 17 15 13 10 8 6 6 6 8 8 7 7 7 6 5 3 3 1 1 3 3 4 4 7 10 10 9 10 10 9 10 9 8 7 7 7 7 10 11 9 6 8 4 3 7 8 5 4 4 2 4 2 3 2 3 4 3 2 1 4 7 11 12 9 10 9 6 9 14 14 12 17 22 21 23 24 22 21 21
9 11 12 13 13 14 15 16 18 17 14 11 10 8 6 6 7 7 7 7 6 6 6 4 4 2 2 3 4 5 6 5 10 13 12 9 11 11 9 9 9 8 6 5 6 6 7 8 11 10 9 4 4 8 6 4 4 2 3 3 2 3 2 5 7 5 3 1 5 8 9 11 10 9 9 9 8 9 9 9 14 19 21 22 22 22 20 19
8 10 11 12 13 13 15 16 18 17 13 10 9 8 7 6 6 6 6 5 5 6 5 4 4 2 3 4 6 7 7 8 9 9 10 9 10 9 8 9 9 7 5 3 3 4 4 4 8 10 8 5 7 8 4 3 3 1 2 1 4 4 1 6 7 4 6 3 7 9 8 10 9 10 14 15 9 4 7 13 18 22 24 24 22 21 19 19
8 9 10 11 12 13 14 16 17 15 11 9 9 8 7 7 6 5 5 4 4 6 5 4 2 1 2 4 6 6 5 6 5 7 14 11 8 8 10 13 13 9 5 1 1 2 2 3 7 8 7 5 7 8 6 7 7 4 2 1 7 7 2 4 6 4 6 5 10 9 7 8 10 11 15 14 6 5 12 15 21 26 26 24 22 20 19 19
7 8 9 10 11 13 14 15 17 14 10 8 8 8 8 7 6 5 4 2 3 4 3 3 1 0 1 3 5 5 4 5 5 14 23 16 8 8 10 12 15 14 8 3 5 5 3 3 7 6 4 4 5 6 7 8 9 4 2 1 8 9 2 4 8 6 7 8 10 7 7 11 13 11 10 11 7 10 15 17 22 23 23 22 20 19 19 18
6 8 9 10 11 12 13 15 16 12 9 8 8 8 8 8 6 4 3 1 1 0 1 1 1 2 2 3 4 4 3 8 11 16 22 17 11 9 8 9 12 14 12 10 10 10 10 8 8 8 4 3 4 5 6 7 10 6 1 2 7 9 3 5 10 8 9 12 11 12 12 12 12 9 9 13 11 12 16 19 22 20 20 18 16 17 18 17
6 7 8 9 10 11 12 14 15 11 8 7 7 7 8 8 6 4 2 1 1 3 3 3 4 5 4 4 5 4 3 9 15 13 14 15 13 10 9 13 14 12 13 15 17 18 17 14 12 8 4 4 4 5 7 8 7 3 2 4 6 9 7 7 10 9 14 16 14 16 13 11 14 13 11 12 13 15 18 20 20 19 18 16 15 16 17 16
5 6 7 7 9 10 11 14 14 9 6 6 6 7 7 6 5 4 3 3 3 5 5 6 6 6 6 6 6 5 4 9 17 14 15 11 7 5 3 11 12 10 11 16 19 19 18 16 13 9 6 5 5 5 8 7 2 2 5 8 6 6 7 8 10 11 17 17 16 14 10 14 19 14 10 11 15 16 18 19 19 20 18 16 16 16 16 17
5 5 6 6 8 9 10 13 13 8 5 5 5 5 6 5 5 4 4 4 5 6 7 6 7 7 6 5 3 2 2 9 18 15 15 7 5 5 1 6 9 9 11 18 21 19 18 18 14 12 10 7 7 6 9 8 0 1 8 9 4 4 4 8 11 13 16 16 17 14 8 14 14 7 5 10 16 17 18 19 19 20 19 19 18 17 17 17
6 5 5 5 6 8 9 12 12 7 3 5 5 4 5 5 5 4 4 5 7 8 8 8 8 8 8 6 5 3 2 10 17 14 12 7 4 7 5 6 7 7 7 13 19 17 16 16 13 10 6 6 7 4 7 9 6 3 7 5 3 3 3 6 10 14 14 12 18 18 10 10 7 4 7 15 17 17 19 19 19 20 20 21 19 17 17 18
6 5 5 5 6 7 8 11 11 6 2 4 4 3 4 4 4 4 4 6 8 9 11 11 11 10 10 10 9 4 2 10 13 10 10 8 7 8 6 6 7 5 2 7 15 14 12 11 9 9 7 8 5 2 5 11 11 7 6 4 4 5 5 8 12 18 13 10 21 21 10 2 2 6 14 19 19 17 18 18 19 19 20 21 19 17 18 19
6 6 5 4 5 6 8 10 10 5 2 3 4 3 4 4 5 5 5 7 9 11 13 13 14 13 10 11 10 8 4 11 11 8 9 9 8 8 7 5 3 3 2 6 13 13 10 7 7 11 11 10 6 2 6 11 12 8 4 4 2 2 3 9 15 19 13 15 25 14 4 3 2 9 18 20 21 19 18 17 18 18 20 21 20 18 18 19
6 6 6 5 5 6 8 9 9 5 1 3 3 3 4 5 5 6 7 9 10 12 13 14 15 13 13 13 8 3 4 8 12 9 9 10 9 9 11 10 7 6 6 6 9 11 10 7 6 8 8 8 6 4 5 6 7 5 2 2 2 2 3 8 14 16 10 18 24 8 2 5 4 11 21 22 22 21 21 19 18 18 19 20 20 19 18 19
7 7 6 6 6 6 7 8 8 5 2 3 3 2 3 5 6 7 9 10 11 13 14 15 13 11 13 11 3 5 8 10 12 9 7 8 7 8 12 14 13 9 8 8 7 8 11 11 7 5 5 6 4 4 2 0 0 1 2 2 2 3 3 4 11 15 12 15 16 8 3 5 5 13 24 25 23 22 22 21 20 19 19 20 19 19 18 18
7 7 7 6 6 6 7 8 8 5 2 2 2 1 1 4 6 8 10 11 13 15 15 15 12 11 9 3 3 5 13 12 7 7 10 7 6 7 9 12 14 12 12 10 8 10 14 12 7 3 3 3 2 4 3 2 3 3 3 2 3 3 2 1 7 12 16 13 6 5 4 3 4 14 24 26 25 23 22 22 22 20 20 20 19 19 19 19
8 8 7 7 7 6 7 8 6 4 2 1 1 2 2 4 7 9 11 13 15 17 17 17 15 13 7 3 3 9 14 9 6 9 11 8 7 7 9 11 13 15 15 11 10 14 16 10 4 3 1 2 2 4 4 1 2 3 1 2 3 4 3 2 5 7 13 12 3 2 6 6 6 14 23 25 26 24 22 23 24 22 22 21 20 19 19 19
8 9 8 7 7 7 7 7 5 2 1 1 1 3 3 4 6 9 12 14 18 18 17 14 9 7 5 3 2 9 12 9 7 8 8 8 7 8 10 11 10 12 13 11 12 15 14 6 3 1 2 0 2 4 3 3 5 4 4 2 3 3 3 3 4 5 10 9 6 5 5 8 7 12 21 25 26 24 22 25 24 23 23 22 21 20 19 19
8 9 10 9 7 7 7 6 4 2 2 2 2 3 4 6 8 10 11 14 17 14 10 7 4 3 7 12 9 4 7 7 6 7 10 9 8 12 15 12 10 13 12 7 10 14 10 2 1 1 2 4 5 6 7 7 6 8 7 5 4 4 4 5 4 6 11 8 6 7 5 7 8 10 17 24 27 24 22 22 21 21 22 23 22 21 21 20
8 9 10 10 8 7 6 6 5 3 3 2 2 4 3 5 6 6 9 15 17 15 15 17 16 17 18 18 12 6 7 7 8 10 11 11 12 16 20 17 12 13 12 7 6 11 11 3 3 6 7 9 10 11 12 8 5 5 4 5 5 5 5 6 4 6 12 8 4 8 6 7 9 10 15 24 25 21 19 18 20 21 22 24 24 22 22 20
8 9 10 11 9 7 5 6 5 5 6 6 7 8 5 3 3 3 9 16 19 17 19 22 20 22 26 22 11 5 6 6 9 9 7 11 12 9 13 14 8 7 11 12 7 8 10 4 6 10 11 11 10 11 11 8 4 4 4 4 4 5 5 6 5 7 9 7 4 6 5 6 8 8 13 21 18 16 21 20 21 24 24 26 25 22 22 19
9 8 10 11 10 7 5 5 6 8 10 10 9 10 7 4 4 6 9 12 18 19 18 20 20 20 24 21 10 3 1 0 4 5 4 6 8 5 6 5 3 4 7 9 5 4 4 5 9 10 7 6 6 6 8 8 6 5 3 3 3 3 2 2 2 5 6 5 5 6 6 6 6 4 10 17 16 16 24 26 24 26 25 25 24 20 18 18
11 9 9 11 11 8 6 5 6 9 10 9 10 11 7 4 5 10 10 7 15 21 19 18 19 18 18 17 10 3 2 0 3 6 3 3 6 5 4 2 2 2 5 7 5 4 2 6 9 8 5 3 4 2 6 2 1 4 4 5 4 3 3 1 3 5 5 4 7 6 3 1 3 1 5 12 17 17 21 24 24 25 23 21 20 17 16 16
12 10 9 10 11 10 8 7 8 9 8 7 12 11 5 5 7 11 10 4 7 14 16 16 16 17 17 14 7 4 5 5 6 8 5 4 4 4 4 3 1 2 5 8 7 5 3 7 5 5 8 4 3 4 5 7 4 1 4 5 4 4 5 5 4 3 2 5 8 7 4 3 3 2 2 4 9 12 16 19 19 20 21 19 19 17 15 13
13 11 9 9 10 11 10 9 9 9 5 7 13 13 7 7 9 11 8 2 3 8 9 9 10 11 12 11 6 4 4 7 7 5 3 5 4 4 5 2 3 3 6 8 7 3 4 6 2 5 6 2 3 2 3 6 4 4 2 6 7 7 7 5 3 4 5 3 6 6 5 2 5 0 2 1 4 6 11 16 16 19 21 20 21 19 15 12
14 12 10 9 9 11 11 9 8 6 3 7 12 12 11 9 9 11 6 3 3 5 4 2 4 4 8 11 8 4 4 6 7 2 1 3 4 5 5 4 2 4 7 7 4 2 2 2 3 2 4 6 5 3 1 5 6 2 3 5 4 6 6 6 4 4 3 3 5 3 6 2 4 2 2 2 5 5 7 11 14 20 22 22 23 20 16 14
15 13 11 9 9 11 10 8 7 5 4 8 10 10 12 12 11 10 5 4 3 5 3 2 2 2 6 7 6 4 0 3 5 1 2 3 1 3 3 4 3 0 4 5 2 1 1 3 5 5 6 6 5 2 1 4 7 2 5 3 2 3 5 7 6 4 3 3 2 3 6 4 0 2 2 4 7 5 4 6 10 17 22 24 25 21 17 17
15 14 11 10 9 10 11 9 8 7 7 9 9 10 12 13 11 7 3 4 3 4 3 3 2 2 5 4 6 7 3 3 3 3 6 5 3 1 1 5 4 3 1 6 2 5 2 2 3 5 5 4 1 2 3 5 5 6 7 2 3 1 3 5 6 3 1 4 3 4 3 5 2 4 1 4 7 5 7 7 8 15 22 24 25 22 19 18
15 14 12 10 9 10 11 9 7 8 8 9 9 10 10 11 9 3 6 2 3 2 2 2 2 4 5 3 6 8 4 5 5 3 5 6 5 3 3 6 5 3 1 5 5 6 3 3 5 6 4 0 3 6 3 4 2 5 4 4 4 4 3 3 5 3 4 5 2 6 2 5 3 4 2 4 4 6 7 6 8 15 22 25 26 24 21 19
14 14 12 10 9 10 11 8 5 7 9 9 9 9 9 7 4 5 3 2 3 2 2 2 3 6 6 3 3 5 3 6 8 5 5 7 6 4 4 4 2 5 2 4 2 3 1 1 1 3 3 4 4 5 3 4 4 1 3 4 5 6 4 3 3 4 5 2 5 6 4 6 0 3 4 4 4 8 7 5 6 10 17 24 27 26 23 20
14 13 12 11 9 10 11 7 4 5 8 8 8 9 8 4 4 5 1 3 2 2 1 2 3 4 6 3 2 3 3 4 5 5 4 6 3 4 3 1 3 5 4 5 4 5 5 4 2 1 1 2 0 4 5 2 1 4 4 2 3 4 5 5 5 5 5 2 6 4 4 7 2 3 4 4 6 10 9 7 7 9 13 22 27 27 23 21
14 12 11 11 10 10 11 7 4 4 6 6 6 8 4 2 3 1 3 3 2 2 1 3 4 3 4 4 3 4 3 2 3 4 4 3 1 2 1 2 3 4 4 2 1 5 5 3 4 4 3 0 3 3 6 6 6 5 4 5 4 3 4 4 3 3 1 3 4 3 5 4 0 4 3 5 7 9 12 13 14 14 16 20 26 27 24 22
14 12 9 10 10 10 9 7 6 4 4 5 5 7 4 5 1 4 2 2 3 3 2 2 4 4 4 3 3 3 2 2 4 2 3 3 3 1 2 1 5 5 1 2 1 3 3 6 6 4 4 1 4 4 2 3 4 4 2 4 4 2 3 2 3 2 1 3 5 2 3 2 1 3 3 8 10 14 19 20 18 17 17 20 25 27 26 23
14 11 9 9 9 9 7 7 7 5 4 4 2 5 4 2 4 4 1 4 5 4 3 2 2 1 3 3 2 2 2 1 2 2 3 3 4 1 2 4 3 5 3 2 2 2 2 3 3 1 2 2 2 3 5 3 1 2 2 5 4 3 3 1 2 1 2 4 5 4 3 3 3 3 6 9 11 17 22 19 16 13 13 20 26 27 26 23
13 10 9 7 6 6 5 7 8 4 2 2 4 5 2 3 4 2 3 4 2 3 5 3 3 3 4 3 3 0 3 1 1 3 3 3 3 3 2 3 2 4 4 3 1 0 4 2 6 4 3 2 1 2 3 5 2 3 1 5 2 2 4 1 2 4 2 1 3 3 2 2 3 1 1 3 7 12 15 16 14 9 10 22 28 27 26 22
12 9 7 6 4 3 3 7 7 4 3 4 5 2 3 4 3 2 3 3 2 2 4 6 4 4 3 4 4 4 2 1 1 3 3 2 2 1 2 2 2 3 4 4 1 1 3 2 7 3 3 1 3 2 2 5 1 2 3 2 4 3 7 3 1 1 4 4 1 1 1 2 3 3 4 4 3 6 7 11 12 11 15 25 28 26 25 23
11 8 5 4 4 5 6 7 7 4 4 6 5 3 5 4 5 5 3 5 6 2 3 3 1 2 0 2 3 4 2 2 2 2 1 1 1 1 1 1 2 2 4 4 1 1 3 2 7 2 1 3 2 2 4 3 5 3 2 2 3 2 4 4 2 4 5 3 1 2 1 0 1 0 2 2 2 3 3 6 9 11 17 22 24 25 24 21
14 9 3 2 5 6 9 9 6 5 4 5 2 4 3 3 6 5 5 8 8 3 4 1 1 2 3 2 3 5 2 2 2 1 1 1 1 1 1 1 3 2 3 5 2 0 4 1 7 3 1 3 3 5 5 4 5 4 1 2 3 3 2 2 2 1 2 2 2 4 3 1 2 3 2 4 6 5 5 4 7 9 14 20 22 23 22 20
15 8 4 5 5 5 6 7 5 4 3 3 2 4 3 4 8 11 13 12 7 2 1 2 1 1 1 3 3 3 1 1 1 1 2 1 1 1 0 1 2 4 3 6 3 0 3 4 4 6 3 3 5 5 1 4 4 3 3 3 2 3 3 1 1 2 2 2 1 2 4 1 4 4 5 7 9 8 7 5 6 10 15 20 22 21 21 20
12 7 3 7 9 5 3 5 6 4 2 2 4 3 3 4 9 15 19 14 6 2 1 2 2 2 1 1 2 1 0 2 1 1 1 1 2 1 2 1 2 1 8 10 4 1 3 4 1 6 5 3 2 0 4 4 0 3 4 4 3 2 1 1 1 1 3 3 2 1 1 4 5 4 5 8 8 8 8 7 7 13 17 19 20 19 17 17
10 5 2 9 12 8 6 6 5 3 2 2 3 2 4 5 8 15 23 21 11 7 3 3 3 2 2 1 1 1 1 2 3 3 2 1 2 1 3 2 1 1 6 8 5 2 1 2 2 3 5 3 3 4 4 7 5 5 4 2 1 1 3 3 2 3 2 3 3 4 2 6 5 2 4 6 6 7 11 13 12 16 19 18 16 15 14 14
9 3 4 8 9 8 7 4 1 2 3 3 4 4 7 8 7 12 21 22 10 5 1 2 3 2 3 2 1 2 3 2 3 3 2 0 3 3 1 5 7 5 5 3 1 0 3 3 3 1 2 2 6 6 1 4 5 5 3 3 4 3 4 5 1 3 2 2 1 3 2 5 6 3 4 5 9 12 17 19 18 19 21 18 16 16 14 12
12 7 2 4 3 6 5 0 3 2 2 5 6 8 10 8 7 10 14 14 7 1 2 1 1 1 2 2 1 3 3 1 1 2 1 1 2 2 4 9 11 7 5 2 2 2 2 3 3 2 4 4 6 6 5 4 6 6 3 2 4 3 3 5 5 3 1 3 2 3 1 5 6 5 5 3 9 14 18 21 21 21 21 19 19 18 16 13
17 11 3 2 1 4 4 1 2 2 4 5 5 7 11 9 9 10 9 8 6 1 2 1 1 1 1 3 4 2 3 2 1 0 2 0 1 4 9 12 9 5 3 2 2 2 1 1 3 3 3 5 6 7 7 6 5 3 1 3 3 5 5 3 1 3 3 1 2 4 1 6 6 6 6 3 3 6 13 19 22 22 21 21 21 19 17 14
14 8 5 6 3 4 3 2 4 2 2 3 4 6 8 7 9 12 11 10 7 1 2 2 2 5 3 4 4 1 3 4 1 1 1 1 1 3 10 14 11 7 4 5 5 3 2 2 3 5 3 1 1 2 2 2 3 1 0 3 3 4 6 3 1 4 1 2 2 4 4 6 6 6 6 6 5 2 10 17 18 18 20 22 21 20 17 15
8 3 6 9 5 1 3 4 4 2 1 2 4 5 4 3 7 12 10 7 5 2 1 1 4 7 4 4 4 1 1 3 2 1 1 2 1 0 6 12 11 9 8 7 5 4 3 2 2 6 6 5 5 5 5 3 1 1 1 2 2 1 5 6 4 2 3 1 2 3 6 2 6 6 5 7 7 4 8 12 13 14 18 22 22 20 18 16
5 2 4 6 6 6 7 9 11 9 5 3 2 4 4 4 5 9 8 4 4 3 1 1 3 5 3 4 5 2 1 1 1 1 1 2 1 2 4 9 9 9 10 7 4 4 5 3 0 4 4 6 7 7 5 1 2 3 3 1 1 2 5 7 3 3 4 4 3 7 4 1 6 7 5 7 6 5 6 9 11 14 18 22 22 20 19 16
4 3 5 6 4 2 3 7 12 11 8 5 2 2 5 6 4 4 5 8 10 7 2 2 3 3 8 7 5 3 2 3 2 1 0 1 2 3 3 2 2 6 8 5 3 4 6 1 3 1 2 5 4 5 4 1 2 4 6 5 4 5 5 4 4 6 6 5 6 8 6 5 6 7 7 8 7 7 8 8 9 12 18 22 22 21 20 17
5 4 6 8 5 4 5 9 11 9 6 5 3 2 2 5 5 4 3 4 8 6 2 1 3 2 6 7 6 4 4 3 1 3 1 1 1 2 2 2 2 2 4 4 2 2 5 1 3 2 3 7 5 4 5 3 2 4 5 6 6 7 8 7 5 6 7 5 7 5 5 7 7 7 8 7 6 9 8 6 7 10 18 23 22 21 20 18
7 4 7 10 8 7 9 9 8 6 5 4 2 3 3 3 5 5 2 3 4 5 4 0 1 1 2 4 6 3 5 7 7 5 5 4 1 1 3 2 3 1 2 3 1 2 3 2 3 4 4 7 6 6 8 4 3 5 4 4 0 2 3 3 2 3 4 3 3 2 1 6 6 7 7 6 3 8 8 9 9 9 13 18 19 20 20 18
5 3 7 8 5 6 9 9 6 4 4 4 3 5 5 4 7 7 4 2 4 3 6 4 3 4 3 4 6 2 2 4 6 8 9 7 3 4 4 4 6 4 2 2 1 2 3 1 1 5 5 5 4 6 9 6 4 2 6 6 3 2 3 3 3 4 5 5 2 1 2 5 6 5 5 5 4 8 10 12 13 11 9 10 13 17 18 17
4 2 5 5 2 4 7 7 6 3 3 5 7 6 5 8 14 12 3 2 8 12 10 6 3 5 5 5 4 5 6 5 7 8 9 6 3 4 3 3 7 7 4 3 2 1 4 4 1 4 3 5 5 4 5 6 7 5 5 5 6 4 3 3 3 4 6 6 6 3 5 6 5 2 1 4 6 7 9 9 10 12 11 8 8 10 11 11
Wind_Direction
348 352 353 356 3 9 9 10 12 13 15 18 20 24 39 73 103 123 128 134 138 146 150 152 151 140 130 104 334 328 334 345 354 12 30 56 65 63 73 79 81 77 72 73 60 37 34 24 13 201 235 247 254 234 193 177 153 124 88 87 109 173 187 171 150 215 203 223 122 127 120 120 117 105 99 81 80 87 91 94 106 119 128 134 136 138 140 140
343 347 349 355 2 8 9 9 13 15 18 19 22 28 51 86 110 125 129 134 136 141 143 148 143 120 93 325 321 336 356 15 53 64 67 76 84 87 90 86 78 73 76 84 72 29 19 26 43 111 194 224 205 182 154 136 116 105 100 94 155 197 178 181 196 225 222 165 127 128 122 126 138 136 122 86 82 94 91 88 104 114 124 134 140 143 144 144
339 343 348 353 2 7 7 9 13 16 19 20 23 31 58 85 108 123 130 135 138 142 142 147 142 111 64 19 6 13 20 52 76 75 70 77 99 105 94 83 73 62 57 65 71 44 20 31 56 104 156 156 132 149 136 110 100 92 106 94 236 207 168 223 233 221 203 177 117 115 111 118 134 130 110 114 110 101 114 123 119 122 133 143 148 150 151 154
334 340 345 352 1 5 7 9 13 16 20 20 23 34 54 75 104 120 125 133 138 139 137 144 149 133 98 58 34 23 29 61 64 70 76 83 109 116 98 83 70 52 39 22 49 54 25 37 63 86 110 91 86 99 90 96 100 64 102 140 202 171 155 226 229 187 184 188 116 111 100 100 117 120 117 125 115 98 160 159 152 147 147 150 151 155 159 161
331 337 342 350 359 3 6 8 11 17 20 20 23 34 51 72 96 111 121 130 137 134 128 129 130 131 106 62 43 14 16 63 57 76 82 83 107 119 101 79 69 65 57 22 223 215 306 45 82 74 63 54 53 66 77 96 98 62 356 167 154 161 178 197 182 157 183 156 111 100 84 94 99 106 126 133 124 168 179 172 162 154 151 152 152 158 162 161
329 334 340 349 356 1 5 6 10 17 19 19 21 34 54 71 88 110 128 129 143 138 120 108 93 55 56 37 30 4 27 94 118 93 79 73 87 103 98 78 70 72 75 124 176 178 185 126 96 79 52 49 45 63 86 106 115 91 310 156 154 177 201 182 177 191 196 139 106 98 97 104 89 82 115 118 119 162 170 168 161 155 153 154 154 162 167 165
326 331 338 347 353 358 2 5 9 15 19 17 21 38 54 65 81 105 121 139 183 112 59 58 302 290 324 340 352 1 98 128 135 103 81 83 92 81 75 90 91 75 70 91 109 117 136 140 107 88 66 72 61 60 80 117 134 128 213 185 173 198 229 191 191 198 168 133 118 114 108 104 92 87 98 99 119 146 156 161 160 159 159 158 158 163 167 165
323 327 335 344 351 356 360 5 9 14 18 16 26 43 54 63 72 78 73 54 340 352 342 331 308 297 304 300 312 301 220 171 158 128 101 106 107 97 68 77 88 67 59 78 89 99 107 107 106 99 71 94 92 60 73 105 119 99 182 180 179 214 241 205 193 177 143 133 127 115 102 103 108 110 101 106 129 141 150 156 158 162 164 163 160 159 164 165
320 322 333 342 350 355 360 6 8 12 15 15 30 46 54 60 61 58 45 15 348 345 339 330 316 309 307 300 308 306 276 188 178 158 135 126 89 121 87 50 56 42 56 79 85 94 100 101 107 111 101 107 100 75 78 88 47 351 155 176 179 196 225 205 193 167 140 137 133 113 94 111 117 109 96 122 138 143 150 153 159 163 165 166 163 162 165 167
315 318 329 339 349 354 360 8 10 9 11 15 28 44 51 54 52 46 24 3 339 338 338 323 317 316 311 303 297 317 334 176 184 174 155 164 21 68 87 36 43 34 65 88 87 89 102 108 107 101 99 101 93 91 83 88 148 333 142 169 190 165 199 203 194 169 141 136 135 123 112 130 131 106 97 142 145 147 151 152 162 166 166 168 166 167 168 172
310 313 321 334 347 352 358 10 13 9 2 10 19 38 43 41 40 30 12 353 335 335 327 317 319 317 322 308 250 235 238 180 182 182 174 181 89 85 75 52 44 37 71 103 98 95 105 113 114 103 96 95 85 78 92 114 140 144 134 135 284 272 279 242 205 173 144 132 141 131 120 130 119 93 147 159 156 156 156 157 167 170 171 171 172 174 176 179
305 306 311 325 340 348 360 10 16 14 352 359 11 27 26 29 24 7 353 337 332 331 324 325 326 326 330 307 284 307 254 189 181 183 187 173 125 111 95 63 39 45 97 142 125 118 115 114 118 117 125 128 104 35 119 144 149 157 145 111 302 307 305 251 205 174 152 142 151 132 100 78 69 137 162 163 163 164 161 163 170 174 176 176 180 182 183 185
300 301 300 314 329 344 1 11 18 17 343 346 1 16 10 14 2 344 333 327 329 326 323 326 331 338 328 311 326 338 263 196 192 187 182 177 148 144 154 132 93 120 181 174 151 144 135 119 112 122 133 139 130 118 157 166 163 174 164 113 180 311 287 224 187 171 153 153 162 141 71 295 291 162 168 169 168 168 168 171 175 177 180 182 186 188 189 190
295 295 291 302 315 336 359 13 21 20 350 332 345 13 6 3 348 330 327 323 322 319 321 326 333 345 330 327 351 296 218 187 209 212 182 180 174 180 190 187 180 184 205 188 164 169 166 150 130 134 148 157 149 134 151 166 165 173 151 99 137 142 236 213 176 162 146 165 169 137 69 217 240 179 175 177 175 172 173 177 180 181 184 187 190 193 196 197
286 288 286 292 303 327 352 10 22 24 7 316 321 358 356 350 331 319 323 319 316 312 315 322 326 343 333 331 15 184 180 186 221 232 200 177 178 196 194 196 196 193 211 203 187 204 198 181 172 162 169 184 164 115 109 128 281 91 111 294 323 133 215 233 182 160 142 172 169 110 106 214 233 193 183 180 182 180 177 181 184 187 193 195 197 199 202 205
277 279 278 283 295 316 341 2 19 29 23 328 303 300 324 334 317 308 312 309 311 309 313 320 320 336 338 351 73 170 181 191 218 231 226 206 188 187 169 189 204 211 222 213 220 239 213 192 188 187 166 174 133 93 67 33 339 356 109 230 264 162 189 247 207 179 149 158 173 103 140 207 236 202 188 181 184 184 179 185 189 193 199 200 202 205 206 207
274 273 271 275 287 304 331 353 10 25 27 7 276 256 261 305 305 302 304 306 307 303 305 308 308 318 312 158 150 208 203 203 202 210 227 230 210 184 166 191 207 216 225 223 228 226 206 188 168 187 174 133 131 96 68 44 269 304 93 186 240 181 171 176 222 203 149 141 168 116 150 187 205 194 189 187 186 184 181 188 195 198 202 202 204 207 209 209
274 270 266 268 277 294 321 342 356 6 358 357 270 245 240 274 294 295 297 301 301 300 304 306 312 323 289 241 230 224 220 210 192 201 222 232 225 206 199 208 213 214 222 221 206 197 197 199 140 131 335 7 161 117 122 207 196 187 168 177 228 183 190 214 209 185 145 134 152 146 177 203 189 178 188 193 190 186 187 190 196 200 201 202 204 207 210 212
279 269 265 264 269 286 311 331 339 315 312 346 307 278 261 273 277 275 286 297 296 297 304 301 301 303 278 286 297 254 225 213 193 206 221 232 229 221 223 232 227 203 197 194 179 179 184 196 93 179 260 214 206 184 191 211 178 165 169 152 165 186 221 230 213 162 141 128 154 167 192 200 177 173 185 192 192 193 195 192 196 202 202 202 204 209 211 214
290 273 264 262 265 277 298 315 312 297 313 336 349 353 334 302 282 269 298 302 294 295 299 293 286 282 279 285 287 256 249 243 226 227 229 226 214 217 224 226 212 178 174 176 168 179 175 159 243 223 225 214 205 203 207 212 173 147 147 145 165 181 215 222 207 161 142 129 182 189 185 187 181 181 184 186 188 195 197 192 196 202 203 202 203 209 211 214
305 279 265 261 261 270 281 297 295 285 308 323 340 351 345 318 296 306 322 309 299 298 298 296 289 283 280 282 291 277 262 248 233 235 225 217 215 219 217 208 186 163 184 188 161 154 167 191 244 223 225 224 211 205 213 225 199 145 145 159 183 184 203 214 187 171 153 132 185 199 180 192 193 184 182 181 181 189 187 185 196 201 202 204 205 211 213 217
317 290 271 260 256 265 265 272 279 287 314 330 339 339 333 321 281 301 325 310 300 297 292 291 288 286 279 273 288 327 316 288 230 214 161 216 241 249 211 177 171 203 179 166 140 111 164 233 251 240 232 220 218 187 185 223 206 151 119 118 189 207 182 243 197 166 161 135 172 195 179 200 219 186 174 179 182 186 181 179 187 192 195 198 201 205 204 210
323 304 281 262 253 258 253 246 270 294 318 327 336 337 327 326 301 306 320 302 297 297 291 285 282 285 279 265 266 266 230 91 220 217 214 268 264 263 251 211 218 213 118 133 157 136 155 248 248 272 327 0 321 27 110 110 116 134 127 124 190 213 115 239 248 169 159 129 145 161 157 246 304 168 172 184 185 187 182 176 177 179 179 181 184 187 186 194
326 314 294 268 253 251 248 243 266 296 315 331 353 356 331 320 316 314 317 289 287 293 284 275 270 271 265 256 254 225 225 243 228 218 242 303 315 316 284 223 130 72 131 151 155 145 218 247 241 314 336 340 324 351 74 79 40 319 167 146 182 204 184 210 216 162 83 73 124 119 67 337 334 127 171 190 173 172 175 172 173 176 173 172 176 181 185 189
328 318 305 280 255 247 248 251 270 295 325 2 8 11 9 352 328 321 328 336 288 284 282 271 256 248 230 219 236 265 269 260 240 210 247 313 351 347 304 276 70 88 137 134 121 124 251 260 302 353 346 33 118 49 69 104 68 327 230 177 177 174 196 212 134 95 56 81 163 127 87 297 306 175 186 159 107 126 156 168 176 179 175 175 179 185 190 189
330 320 310 294 261 245 250 263 278 293 351 357 352 357 359 353 333 324 338 47 327 283 298 278 228 209 187 188 212 265 309 255 225 197 285 306 8 9 323 314 52 133 144 127 118 143 262 317 35 43 35 47 76 73 49 123 100 356 246 210 191 133 163 197 144 109 108 175 213 129 114 196 310 301 229 153 109 107 145 170 179 178 177 180 184 186 188 188
331 321 311 301 274 252 260 272 266 272 321 326 331 345 343 343 339 326 345 48 340 285 289 254 212 153 167 179 192 187 5 222 205 247 236 203 328 8 318 295 338 252 163 112 83 239 219 35 37 48 49 40 49 66 217 120 99 258 253 241 301 77 144 188 170 153 172 160 348 25 108 115 126 235 242 131 120 116 160 188 188 181 181 185 188 187 186 187
331 322 310 299 283 265 271 273 256 269 298 301 312 326 331 339 336 328 62 76 298 284 282 243 221 186 178 194 217 207 199 171 155 283 248 213 240 226 193 246 234 240 237 101 135 253 217 123 106 86 58 40 34 258 249 90 93 253 258 259 295 338 136 165 159 166 126 91 6 317 85 92 246 264 353 110 126 150 188 201 198 187 186 188 189 188 187 186
331 323 310 295 282 268 270 276 269 271 275 278 295 312 325 335 329 358 81 93 261 271 241 193 187 206 182 174 229 230 227 192 174 206 229 225 244 224 217 242 199 163 353 103 153 233 219 161 151 121 98 112 244 260 251 111 161 256 276 300 323 355 22 90 125 130 53 77 201 251 125 100 261 277 96 117 145 181 200 218 208 193 189 189 189 187 186 184
329 322 311 293 277 267 264 269 267 261 268 276 290 313 329 331 352 56 59 262 245 241 210 189 201 184 158 130 253 246 238 223 204 174 204 231 243 255 258 261 117 100 42 42 80 247 252 77 100 117 153 204 233 276 267 192 211 312 14 329 339 2 4 30 77 92 63 18 250 234 159 115 207 265 167 172 195 179 185 219 219 201 189 188 189 187 184 183
326 321 309 290 275 266 262 256 231 248 270 275 293 327 336 334 61 86 189 249 247 279 260 231 232 162 153 165 236 244 235 248 220 148 196 251 282 317 312 357 49 56 25 6 2 326 355 24 328 290 239 225 344 324 319 336 16 43 51 35 6 351 0 16 1 35 74 290 269 237 130 105 112 239 211 210 191 168 169 185 203 210 189 182 188 188 183 181
325 318 304 286 274 262 256 244 212 237 268 267 306 339 354 26 34 145 235 298 312 270 234 218 216 168 182 203 224 230 188 216 238 148 167 205 58 332 288 139 124 52 0 305 342 343 343 315 289 311 311 309 77 8 341 6 25 31 49 69 68 7 9 20 340 0 101 245 262 177 128 94 227 244 199 173 174 172 174 176 184 191 179 175 183 184 180 179
324 315 298 278 270 259 248 236 221 234 267 266 316 352 54 81 295 228 225 297 250 220 224 221 197 162 147 156 229 252 136 185 233 180 146 129 92 336 310 123 127 104 85 214 62 13 337 312 320 344 327 326 106 89 14 334 2 21 48 94 95 84 49 357 296 341 330 274 276 224 129 85 302 280 203 179 180 178 172 170 174 176 172 174 178 177 177 177
323 313 294 273 265 258 244 224 216 225 264 270 346 30 66 103 244 236 228 249 246 252 257 222 159 123 72 97 219 236 77 274 235 90 56 68 70 31 353 355 59 102 115 104 55 109 119 310 298 211 280 299 112 134 150 170 352 356 161 122 105 131 126 190 235 224 278 278 297 325 52 123 176 227 218 190 168 165 163 161 162 161 162 170 171 171 173 173
321 310 294 277 259 251 237 204 198 201 226 212 71 71 130 221 246 244 239 242 259 291 290 307 81 59 1 346 313 2 110 248 286 66 45 92 128 174 163 319 344 91 97 79 331 145 117 239 257 235 229 141 91 265 142 104 29 305 115 81 46 181 137 111 193 178 199 337 328 337 39 187 209 250 250 143 138 152 154 153 151 136 137 157 164 168 170 171
321 306 288 271 233 210 193 180 176 169 178 136 85 89 205 217 220 206 233 261 288 307 340 348 37 66 346 322 332 344 64 116 50 51 16 91 128 165 139 245 285 98 109 124 190 323 69 278 271 288 313 127 144 239 42 90 142 305 48 58 255 183 122 98 321 345 56 68 324 308 80 334 344 13 16 40 120 148 150 156 149 126 131 148 159 166 170 174
326 316 291 241 190 143 131 148 149 157 170 120 106 210 220 225 224 213 244 295 286 278 66 28 19 99 242 294 312 315 8 11 2 53 344 17 41 287 148 230 306 99 142 141 146 234 120 301 283 263 355 277 177 76 13 76 120 78 13 239 250 40 79 96 60 358 33 71 309 352 82 74 37 32 4 33 175 179 184 167 132 126 136 143 154 164 170 174
331 334 350 158 157 130 128 136 132 141 144 103 119 233 221 234 244 249 295 306 299 327 78 116 243 147 155 162 269 290 13 22 332 52 122 13 20 268 116 52 340 5 153 135 94 278 116 49 296 283 152 293 3 51 2 355 76 95 200 206 94 60 9 31 64 18 31 53 328 351 353 179 175 202 165 169 199 202 208 170 121 141 150 144 154 163 166 170
331 336 41 112 136 120 122 139 150 146 116 103 198 242 240 255 279 291 294 294 293 333 79 191 198 85 138 157 196 266 32 128 251 94 124 116 136 256 269 131 299 329 45 101 111 286 91 101 286 297 326 339 9 49 4 310 357 36 23 13 54 123 153 125 79 142 118 105 191 357 358 313 231 224 174 182 199 187 184 175 149 170 163 150 157 163 165 170
332 340 67 129 142 135 138 157 166 152 104 165 201 240 284 285 294 290 288 289 273 239 234 193 117 46 339 179 158 223 102 120 97 76 104 79 87 300 299 155 182 10 51 62 72 52 55 86 249 299 336 27 5 178 175 195 318 40 40 22 358 11 77 96 42 74 116 119 150 111 5 281 255 218 177 185 194 184 174 164 166 176 165 153 155 160 166 172
346 351 118 146 147 155 175 171 170 159 133 225 221 240 287 290 291 291 298 299 273 228 220 159 140 119 116 70 21 15 48 34 33 54 52 36 112 164 296 334 145 116 58 50 39 53 68 91 125 311 354 35 266 266 187 176 162 136 121 109 126 79 75 83 8 325 61 108 156 140 160 266 264 211 197 188 176 178 167 155 165 174 166 160 163 166 168 169
357 340 162 148 151 170 178 173 197 174 173 238 254 263 281 287 283 289 301 302 276 204 138 127 162 148 123 128 333 67 71 24 22 53 49 230 128 152 290 55 77 83 83 72 341 110 131 100 87 302 294 230 261 297 18 135 124 110 113 128 128 103 98 114 155 281 355 25 347 113 128 259 265 245 228 183 151 162 164 160 166 173 170 171 175 173 171 169
344 316 192 130 155 182 168 192 324 324 239 260 274 278 281 280 275 286 298 296 280 172 60 76 151 97 122 156 132 85 87 64 41 69 93 308 44 115 115 88 86 81 74 76 304 344 82 71 56 319 302 302 298 322 0 42 67 67 31 62 101 98 120 142 166 172 83 357 355 66 54 267 278 294 276 195 142 156 167 164 166 173 176 177 177 176 177 175
335 312 266 40 340 201 169 171 241 278 287 290 304 298 291 280 266 273 280 278 279 167 123 224 164 134 143 118 106 115 122 101 357 47 136 174 6 101 105 95 92 80 67 152 175 38 37 83 74 58 3 347 342 346 350 357 34 77 327 357 77 104 97 92 90 85 74 279 144 106 206 254 274 316 325 345 89 154 177 172 170 176 182 183 183 182 182 178
338 319 309 351 353 211 220 189 179 201 275 312 320 295 293 284 264 266 261 258 268 206 163 256 149 133 124 97 91 88 129 129 209 270 133 113 31 106 106 100 96 96 123 163 150 97 111 147 104 104 118 147 270 301 298 316 3 28 288 5 41 98 102 102 51 59 74 260 102 127 201 260 293 328 347 341 343 248 194 183 181 186 188 189 189 187 186 183
349 337 323 342 8 28 332 1 30 7 264 318 321 282 269 270 283 295 287 254 251 232 215 277 117 110 76 86 99 41 119 146 142 69 127 149 179 246 122 113 108 115 127 125 110 92 92 86 108 132 154 181 191 220 230 171 93 12 81 20 356 94 104 102 85 75 177 180 8 212 199 279 308 307 321 311 304 270 217 196 194 200 198 195 193 192 192 190
353 340 353 347 349 3 6 11 15 359 305 279 283 266 282 290 301 325 331 320 324 331 303 336 104 123 130 116 120 166 209 110 46 64 142 163 118 20 101 114 113 126 127 104 87 97 79 28 236 142 177 213 201 223 251 183 173 198 167 147 261 134 93 91 114 213 158 96 312 256 197 161 277 267 264 274 278 257 221 197 198 210 207 200 196 195 197 197
353 326 12 7 328 330 9 345 340 334 314 297 255 245 295 298 294 312 314 328 346 355 11 8 20 160 175 152 126 168 162 41 357 297 20 77 67 42 41 38 68 136 132 97 67 109 100 93 249 129 307 279 239 234 259 268 204 190 173 185 180 161 153 150 196 203 146 138 239 235 186 195 252 256 242 252 255 225 202 191 200 211 206 199 196 197 200 203
10 330 342 354 337 283 287 309 318 322 317 311 295 269 281 288 293 282 270 339 351 350 40 67 335 292 192 158 117 145 175 137 185 244 226 149 108 78 71 343 330 127 118 84 45 89 98 192 242 98 7 314 309 310 312 310 245 214 206 207 183 174 187 188 201 197 165 186 226 203 190 231 244 235 249 281 262 226 221 221 216 203 197 197 197 200 205 209
24 0 334 338 329 306 312 326 335 332 327 331 301 281 280 278 298 295 295 4 338 317 335 143 158 62 193 160 110 138 199 173 169 195 180 152 147 170 166 201 213 164 71 88 32 30 86 215 240 91 44 316 318 347 342 333 197 210 258 285 2 125 182 186 181 179 170 221 239 153 231 279 259 226 253 311 269 232 256 257 235 211 194 196 203 209 216 220
19 6 350 342 314 320 343 347 344 340 342 358 346 317 313 302 311 310 305 21 68 40 336 292 169 91 54 83 79 43 249 180 191 199 174 154 172 191 191 194 174 153 108 147 138 44 92 171 292 69 52 294 310 4 348 0 68 37 320 309 279 167 181 212 204 184 179 180 180 24 312 275 261 241 261 286 247 244 266 264 250 231 199 197 214 218 222 228
355 346 9 9 306 317 352 347 338 0 6 348 343 332 319 318 329 332 311 18 47 49 15 336 147 100 54 65 57 341 339 332 277 228 173 139 116 161 191 205 171 161 159 149 133 127 125 123 142 95 80 276 289 2 354 18 42 1 297 244 211 195 192 229 243 215 193 153 142 199 233 236 252 272 271 265 262 273 286 284 262 231 206 208 230 227 225 228
Height
1533 1532 1531 1530 1529 1528 1527 1525 1524 1523 1521 1520 1519 1518 1517 1516 1516 1515 1515 1515 1515 1515 1515 1515 1515 1515 1514 1514 1513 1513 1512 1511 1511 1510 1510 1509 1509 1510 1510 1510 1511 1511 1511 1511 1511 1511 1511 1511 1510 1510 1512 1513 1514 1514 1515 1515 1514 1515 1520 1525 1529 1532 1531 1528 1528 1528 1527 1526 1525 1524 1522 1522 1524 1524 1524 1525 1526 1525 1525 1525 1525 1525 1526 1528 1529 1531 1532 1533
1534 1532 1531 1530 1529 1528 1527 1525 1524 1523 1522 1520 1519 1519 1518 1517 1516 1516 1516 1516 1516 1516 1515 1515 1515 1515 1514 1514 1513 1512 1512 1511 1510 1510 1510 1510 1510 1510 1510 1511 1511 1511 1511 1511 1511 1510 1510 1510 1510 1509 1511 1512 1513 1513 1514 1515 1514 1517 1522 1526 1528 1529 1527 1525 1524 1524 1524 1524 1523 1523 1522 1521 1523 1524 1524 1527 1529 1528 1527 1529 1528 1528 1529 1531 1532 1533 1534 1535
1534 1532 1531 1530 1529 1528 1527 1526 1524 1523 1522 1521 1520 1519 1519 1518 1517 1517 1517 1517 1517 1516 1516 1515 1515 1515 1515 1514 1513 1513 1512 1511 1511 1511 1510 1510 1510 1511 1511 1511 1511 1511 1511 1511 1511 1511 1510 1511 1511 1510 1512 1512 1512 1513 1514 1514 1515 1516 1520 1525 1526 1525 1525 1523 1522 1522 1522 1523 1523 1522 1522 1522 1523 1524 1525 1528 1531 1531 1530 1530 1530 1530 1531 1532 1533 1534 1535 1536
1534 1532 1531 1530 1529 1528 1527 1526 1525 1523 1522 1521 1520 1520 1519 1519 1518 1518 1518 1518 1517 1517 1516 1516 1515 1515 1515 1514 1514 1513 1512 1512 1513 1512 1511 1511 1511 1512 1511 1511 1511 1510 1510 1509 1509 1510 1511 1511 1511 1511 1512 1512 1512 1513 1514 1514 1515 1516 1519 1524 1523 1522 1523 1521 1521 1522 1522 1523 1523 1522 1523 1524 1525 1525 1526 1529 1532 1534 1532 1529 1528 1529 1530 1532 1534 1535 1536 1537
1534 1533 1531 1530 1530 1528 1527 1526 1525 1524 1523 1522 1521 1520 1520 1520 1519 1519 1519 1518 1518 1518 1517 1517 1516 1516 1515 1514 1514 1514 1513 1516 1516 1514 1512 1512 1512 1512 1511 1511 1511 1510 1509 1508 1508 1509 1510 1511 1511 1512 1512 1512 1513 1514 1515 1515 1515 1519 1521 1521 1520 1521 1522 1520 1521 1522 1523 1524 1523 1523 1524 1526 1526 1527 1528 1529 1531 1533 1531 1530 1529 1530 1532 1533 1534 1536 1537 1538
1534 1533 1532 1531 1530 1529 1528 1527 1525 1524 1523 1522 1521 1521 1521 1520 1520 1520 1519 1519 1518 1518 1518 1517 1517 1516 1516 1515 1515 1514 1514 1518 1518 1514 1513 1513 1513 1512 1512 1512 1511 1511 1509 1508 1508 1508 1509 1510 1511 1512 1513 1514 1515 1516 1517 1517 1517 1521 1522 1521 1520 1521 1521 1521 1521 1522 1524 1524 1524 1525 1526 1527 1528 1530 1531 1530 1531 1531 1531 1531 1532 1532 1534 1535 1536 1537 1538 1538
1534 1533 1532 1531 1530 1529 1528 1527 1526 1524 1523 1522 1522 1522 1521 1521 1521 1520 1520 1519 1519 1518 1518 1518 1517 1516 1516 1515 1515 1514 1514 1516 1517 1515 1513 1514 1515 1513 1511 1511 1512 1511 1510 1509 1508 1508 1509 1510 1511 1512 1514 1516 1517 1517 1519 1518 1517 1521 1522 1521 1521 1521 1521 1522 1522 1523 1525 1525 1525 1526 1527 1528 1530 1532 1533 1532 1532 1532 1533 1533 1534 1535 1535 1536 1537 1538 1538 1539
1534 1533 1532 1531 1530 1529 1528 1527 1526 1525 1524 1523 1522 1522 1522 1521 1521 1521 1520 1520 1519 1518 1518 1517 1516 1515 1515 1515 1514 1514 1513 1513 1515 1514 1514 1515 1515 1513 1511 1511 1511 1510 1510 1509 1508 1508 1508 1510 1511 1513 1515 1517 1517 1518 1518 1519 1519 1520 1521 1520 1521 1521 1522 1522 1523 1525 1525 1525 1527 1527 1529 1530 1531 1532 1534 1535 1535 1535 1535 1535 1536 1536 1536 1537 1537 1538 1539 1540
1534 1533 1532 1532 1531 1530 1529 1528 1526 1525 1524 1523 1523 1522 1522 1522 1521 1521 1520 1520 1519 1519 1518 1517 1516 1515 1515 1515 1514 1513 1511 1511 1512 1513 1513 1513 1512 1511 1510 1510 1510 1509 1509 1509 1509 1509 1509 1510 1512 1513 1515 1516 1516 1517 1517 1520 1522 1520 1519 1520 1520 1521 1521 1522 1524 1525 1526 1526 1527 1528 1531 1533 1532 1533 1536 1537 1537 1537 1537 1537 1538 1538 1538 1538 1538 1539 1539 1540
1534 1533 1532 1532 1531 1530 1529 1528 1527 1526 1525 1524 1523 1523 1522 1522 1521 1521 1520 1520 1519 1519 1518 1517 1516 1515 1515 1514 1514 1513 1510 1509 1511 1511 1511 1510 1510 1510 1510 1509 1509 1509 1509 1510 1510 1510 1510 1511 1512 1513 1514 1515 1516 1518 1518 1520 1522 1521 1519 1519 1519 1521 1522 1523 1524 1525 1526 1527 1527 1528 1532 1534 1533 1534 1539 1540 1538 1538 1538 1538 1539 1539 1539 1539 1540 1540 1540 1541
1533 1533 1532 1532 1531 1530 1530 1529 1528 1526 1525 1524 1524 1523 1522 1522 1521 1521 1520 1519 1519 1518 1517 1516 1515 1515 1514 1513 1513 1512 1509 1509 1510 1510 1510 1509 1510 1510 1510 1510 1510 1509 1509 1510 1510 1511 1511 1512 1513 1513 1515 1517 1518 1519 1519 1519 1520 1521 1521 1520 1519 1521 1523 1524 1525 1526 1526 1528 1529 1528 1531 1535 1534 1535 1538 1539 1539 1539 1538 1539 1540 1540 1540 1540 1540 1541 1541 1541
1533 1533 1532 1532 1531 1530 1530 1529 1528 1527 1526 1525 1524 1523 1522 1522 1521 1520 1520 1519 1519 1518 1517 1516 1515 1515 1514 1513 1512 1510 1509 1510 1510 1510 1510 1509 1509 1510 1510 1511 1510 1508 1508 1509 1510 1510 1511 1513 1513 1514 1515 1517 1520 1521 1521 1520 1520 1522 1523 1524 1524 1523 1524 1524 1524 1526 1525 1528 1529 1527 1533 1538 1536 1536 1537 1537 1539 1539 1539 1539 1540 1540 1540 1540 1540 1541 1541 1541
1533 1533 1532 1531 1531 1530 1530 1529 1528 1527 1526 1525 1524 1523 1522 1522 1521 1520 1520 1519 1518 1517 1516 1516 1515 1514 1514 1512 1510 1509 1509 1509 1509 1510 1510 1509 1510 1511 1511 1511 1509 1508 1509 1510 1511 1511 1512 1513 1514 1515 1515 1517 1520 1522 1522 1521 1522 1524 1524 1525 1528 1529 1527 1522 1522 1525 1524 1527 1526 1525 1538 1545 1538 1536 1536 1536 1538 1538 1539 1539 1539 1540 1540 1540 1540 1540 1540 1541
1533 1532 1532 1531 1531 1530 1530 1529 1528 1527 1526 1525 1524 1523 1522 1522 1521 1520 1519 1519 1518 1517 1516 1516 1515 1514 1514 1511 1509 1509 1509 1510 1510 1510 1510 1509 1510 1511 1512 1511 1509 1508 1509 1511 1512 1512 1513 1514 1515 1516 1517 1518 1519 1521 1521 1522 1524 1524 1525 1526 1529 1533 1528 1519 1519 1523 1525 1528 1525 1525 1540 1545 1538 1536 1535 1535 1536 1536 1538 1538 1539 1539 1539 1539 1539 1540 1540 1540
1533 1532 1531 1531 1530 1530 1529 1529 1528 1527 1526 1525 1524 1523 1522 1522 1521 1519 1519 1519 1517 1516 1516 1515 1515 1515 1514 1511 1509 1509 1509 1510 1509 1509 1509 1508 1508 1510 1510 1510 1509 1508 1509 1512 1513 1514 1514 1514 1515 1516 1518 1518 1518 1521 1523 1524 1524 1524 1529 1532 1530 1531 1527 1520 1518 1519 1524 1528 1525 1526 1538 1542 1536 1535 1534 1534 1535 1535 1536 1536 1537 1538 1537 1538 1538 1539 1539 1539
1532 1531 1531 1530 1530 1529 1529 1528 1528 1527 1526 1525 1525 1524 1523 1522 1520 1519 1519 1518 1517 1516 1515 1515 1514 1514 1514 1512 1510 1510 1510 1509 1508 1508 1508 1507 1507 1508 1509 1510 1510 1509 1510 1512 1515 1515 1516 1516 1516 1516 1517 1518 1519 1521 1524 1528 1528 1526 1530 1533 1530 1528 1527 1524 1519 1517 1519 1525 1525 1525 1535 1540 1534 1531 1533 1533 1534 1534 1534 1534 1535 1536 1536 1537 1537 1538 1538 1539
1531 1531 1530 1530 1529 1529 1528 1528 1527 1527 1526 1526 1525 1524 1523 1522 1521 1519 1518 1517 1516 1515 1514 1514 1513 1513 1512 1511 1512 1510 1508 1508 1508 1507 1506 1505 1506 1507 1509 1510 1510 1511 1511 1513 1516 1516 1517 1516 1516 1517 1516 1518 1519 1521 1529 1536 1534 1530 1531 1531 1528 1525 1527 1526 1521 1518 1518 1521 1525 1525 1530 1534 1529 1528 1531 1532 1532 1533 1533 1533 1534 1534 1535 1536 1537 1538 1538 1538
1531 1530 1530 1529 1529 1528 1527 1527 1526 1526 1526 1525 1525 1524 1523 1522 1521 1520 1518 1517 1515 1514 1514 1513 1513 1515 1513 1510 1509 1508 1507 1508 1506 1505 1505 1504 1505 1507 1508 1508 1510 1512 1512 1514 1516 1516 1517 1517 1516 1518 1519 1519 1520 1522 1531 1532 1527 1527 1530 1531 1528 1525 1525 1524 1520 1518 1518 1520 1524 1527 1529 1529 1527 1528 1530 1530 1531 1532 1531 1532 1533 1534 1535 1536 1536 1537 1537 1538
1530 1530 1529 1528 1528 1527 1527 1526 1525 1525 1525 1525 1524 1524 1523 1522 1521 1520 1518 1517 1514 1513 1514 1512 1512 1516 1514 1508 1507 1507 1507 1507 1505 1504 1504 1503 1506 1507 1508 1508 1510 1512 1513 1515 1516 1515 1516 1517 1518 1521 1521 1519 1517 1519 1522 1519 1515 1519 1523 1525 1526 1525 1523 1520 1517 1514 1515 1521 1525 1526 1528 1527 1527 1528 1529 1530 1530 1530 1531 1531 1533 1534 1535 1536 1536 1536 1537 1537
1530 1529 1528 1528 1527 1527 1526 1526 1525 1524 1524 1524 1524 1523 1523 1522 1521 1521 1519 1516 1515 1513 1513 1512 1512 1512 1510 1506 1507 1507 1506 1506 1505 1504 1503 1503 1505 1506 1506 1507 1509 1512 1512 1513 1515 1514 1515 1520 1521 1518 1515 1512 1511 1512 1511 1511 1513 1516 1518 1520 1521 1523 1522 1515 1514 1513 1511 1519 1525 1524 1525 1525 1525 1526 1526 1528 1530 1531 1532 1532 1533 1534 1534 1535 1536 1536 1536 1536
1529 1528 1528 1527 1526 1526 1526 1525 1524 1523 1523 1523 1523 1523 1522 1522 1522 1522 1519 1515 1513 1513 1512 1511 1511 1509 1506 1505 1506 1506 1505 1505 1505 1504 1503 1504 1505 1505 1505 1505 1507 1511 1510 1509 1512 1514 1517 1522 1517 1509 1507 1506 1507 1508 1509 1511 1513 1515 1517 1519 1519 1520 1518 1512 1511 1512 1510 1517 1525 1524 1525 1525 1523 1524 1525 1526 1529 1530 1530 1531 1532 1532 1533 1534 1535 1535 1535 1535
1528 1527 1527 1526 1526 1525 1525 1524 1523 1523 1523 1523 1523 1522 1522 1522 1521 1520 1519 1516 1512 1511 1511 1509 1509 1508 1504 1503 1505 1506 1505 1505 1505 1504 1503 1503 1504 1504 1503 1504 1506 1507 1507 1509 1513 1517 1520 1518 1509 1502 1502 1503 1504 1506 1509 1510 1511 1514 1517 1520 1522 1518 1516 1513 1510 1511 1510 1515 1524 1525 1526 1526 1523 1523 1524 1525 1526 1526 1527 1527 1529 1530 1532 1533 1534 1534 1534 1534
1528 1526 1526 1525 1525 1525 1524 1523 1523 1522 1523 1523 1522 1522 1521 1521 1520 1520 1519 1518 1513 1509 1508 1507 1506 1505 1503 1502 1504 1505 1504 1504 1505 1503 1502 1502 1502 1502 1502 1503 1505 1505 1506 1511 1513 1516 1519 1513 1504 1500 1500 1501 1504 1504 1506 1509 1510 1514 1516 1519 1521 1516 1517 1519 1514 1512 1511 1513 1521 1526 1527 1527 1524 1524 1524 1524 1524 1524 1526 1527 1527 1529 1530 1531 1532 1532 1533 1533
1527 1526 1526 1524 1524 1524 1523 1522 1522 1522 1523 1522 1522 1521 1521 1521 1520 1519 1518 1517 1514 1508 1505 1506 1505 1504 1503 1502 1503 1504 1504 1504 1504 1503 1502 1502 1501 1501 1501 1500 1503 1505 1506 1508 1508 1511 1512 1506 1500 1500 1500 1502 1506 1506 1505 1508 1512 1513 1511 1514 1516 1513 1514 1515 1513 1512 1513 1516 1519 1524 1533 1532 1527 1528 1527 1525 1525 1524 1526 1528 1528 1529 1529 1530 1531 1531 1532 1532
1526 1526 1525 1523 1523 1522 1522 1522 1521 1522 1522 1522 1522 1521 1521 1520 1518 1518 1517 1519 1518 1509 1504 1504 1503 1503 1502 1502 1504 1503 1503 1503 1502 1502 1501 1501 1501 1500 1500 1499 1502 1507 1506 1505 1508 1510 1508 1503 1500 1502 1503 1504 1507 1508 1506 1506 1512 1513 1509 1508 1509 1509 1510 1510 1512 1513 1521 1529 1522 1520 1539 1542 1530 1529 1529 1527 1526 1527 1527 1528 1528 1529 1529 1530 1530 1530 1531 1532
1526 1525 1524 1523 1522 1521 1521 1521 1521 1522 1521 1521 1521 1520 1521 1519 1518 1518 1517 1524 1524 1511 1505 1504 1502 1502 1501 1502 1503 1502 1506 1504 1500 1501 1501 1501 1501 1500 1501 1500 1501 1506 1505 1504 1507 1509 1506 1502 1502 1504 1505 1505 1506 1508 1506 1504 1510 1514 1507 1502 1502 1505 1508 1510 1512 1515 1523 1530 1521 1515 1532 1545 1537 1530 1529 1529 1529 1529 1529 1529 1528 1529 1529 1529 1530 1530 1531 1532
1525 1524 1523 1522 1521 1520 1521 1520 1521 1521 1520 1521 1520 1519 1520 1518 1519 1516 1518 1536 1533 1510 1504 1504 1501 1502 1500 1501 1501 1503 1510 1506 1500 1501 1500 1501 1501 1499 1503 1503 1502 1504 1501 1503 1511 1510 1505 1505 1505 1504 1505 1506 1507 1508 1505 1502 1509 1512 1503 1499 1502 1504 1508 1509 1510 1514 1516 1517 1520 1517 1520 1537 1543 1535 1531 1531 1532 1533 1531 1530 1529 1528 1529 1529 1529 1530 1530 1531
1525 1523 1522 1522 1520 1520 1519 1520 1521 1520 1520 1521 1518 1519 1518 1517 1519 1515 1525 1547 1534 1507 1504 1503 1499 1501 1500 1500 1501 1502 1505 1503 1502 1503 1499 1500 1501 1499 1503 1503 1503 1504 1499 1504 1516 1510 1503 1506 1506 1505 1507 1509 1508 1506 1502 1502 1508 1507 1499 1499 1501 1502 1506 1507 1509 1513 1513 1517 1528 1525 1518 1535 1546 1536 1532 1533 1534 1536 1533 1530 1530 1528 1528 1528 1529 1530 1530 1531
1524 1522 1521 1521 1520 1519 1518 1519 1520 1519 1520 1519 1518 1519 1517 1517 1517 1515 1532 1545 1524 1505 1504 1502 1500 1501 1498 1500 1501 1500 1501 1500 1502 1502 1498 1500 1500 1499 1502 1501 1500 1503 1500 1502 1510 1508 1503 1503 1503 1503 1508 1509 1505 1503 1500 1502 1506 1502 1498 1500 1499 1502 1504 1506 1510 1512 1513 1524 1533 1526 1520 1535 1545 1536 1534 1537 1536 1536 1533 1529 1528 1527 1527 1528 1528 1529 1529 1530
1523 1521 1521 1519 1519 1518 1517 1518 1519 1519 1519 1518 1519 1518 1517 1518 1518 1528 1547 1539 1516 1507 1504 1501 1501 1499 1498 1502 1502 1500 1500 1500 1499 1498 1498 1499 1499 1499 1500 1499 1498 1502 1504 1503 1505 1505 1501 1500 1500 1501 1505 1504 1501 1501 1499 1500 1502 1499 1501 1503 1503 1507 1507 1507 1512 1511 1518 1531 1529 1522 1519 1529 1541 1537 1531 1533 1531 1528 1529 1529 1527 1526 1526 1527 1526 1527 1528 1529
1522 1521 1519 1518 1518 1517 1517 1518 1518 1519 1518 1518 1519 1517 1518 1519 1523 1542 1549 1526 1511 1510 1503 1502 1502 1498 1500 1503 1504 1503 1501 1500 1499 1499 1501 1500 1501 1500 1500 1502 1503 1506 1511 1510 1509 1507 1504 1504 1503 1501 1501 1501 1501 1501 1500 1499 1499 1501 1506 1508 1510 1514 1512 1513 1515 1514 1530 1540 1525 1518 1519 1525 1537 1535 1524 1524 1522 1521 1524 1525 1524 1524 1524 1525 1525 1526 1527 1528
1521 1520 1518 1517 1517 1516 1516 1518 1518 1518 1518 1518 1519 1517 1519 1526 1533 1541 1534 1515 1515 1513 1502 1502 1502 1499 1502 1503 1504 1503 1501 1502 1499 1499 1502 1503 1504 1504 1504 1506 1507 1514 1522 1519 1515 1513 1510 1509 1506 1503 1501 1500 1503 1506 1504 1502 1502 1505 1508 1511 1518 1526 1528 1530 1531 1530 1537 1535 1520 1515 1519 1527 1534 1528 1520 1520 1519 1519 1520 1519 1520 1522 1522 1523 1524 1525 1527 1528
1519 1518 1517 1516 1516 1516 1516 1517 1517 1518 1518 1518 1519 1517 1522 1537 1539 1531 1522 1517 1516 1508 1499 1500 1498 1498 1502 1504 1505 1502 1500 1503 1499 1499 1501 1502 1506 1507 1506 1505 1503 1512 1521 1521 1520 1520 1519 1514 1507 1506 1505 1500 1503 1509 1511 1510 1508 1508 1509 1512 1522 1533 1543 1547 1546 1544 1540 1530 1519 1515 1520 1532 1537 1527 1519 1518 1516 1516 1517 1517 1519 1520 1520 1522 1523 1525 1526 1528
1518 1516 1516 1515 1515 1515 1515 1516 1517 1517 1518 1518 1519 1521 1530 1541 1533 1520 1519 1516 1508 1502 1499 1498 1497 1499 1501 1504 1504 1500 1501 1503 1498 1499 1502 1503 1509 1510 1507 1506 1503 1507 1512 1517 1521 1523 1528 1526 1513 1509 1508 1502 1502 1505 1508 1509 1508 1508 1507 1510 1517 1525 1536 1543 1542 1542 1540 1532 1524 1519 1525 1537 1537 1526 1518 1516 1515 1516 1517 1518 1519 1520 1521 1521 1522 1525 1526 1527
1516 1515 1514 1514 1514 1514 1514 1515 1516 1517 1518 1518 1520 1527 1535 1536 1526 1519 1517 1511 1504 1503 1500 1496 1497 1503 1504 1503 1501 1498 1500 1503 1499 1500 1503 1505 1510 1510 1508 1508 1505 1505 1509 1517 1522 1520 1526 1525 1511 1505 1504 1501 1503 1502 1500 1505 1510 1509 1506 1510 1515 1515 1520 1532 1538 1537 1535 1535 1531 1528 1531 1533 1527 1520 1518 1518 1518 1518 1518 1518 1519 1520 1521 1521 1523 1525 1526 1527
1515 1514 1513 1513 1513 1514 1514 1515 1515 1517 1518 1517 1523 1531 1530 1525 1519 1516 1512 1505 1505 1505 1503 1501 1501 1506 1510 1506 1503 1500 1498 1500 1500 1502 1505 1507 1509 1509 1508 1507 1504 1504 1507 1515 1520 1520 1525 1522 1508 1504 1504 1499 1502 1501 1498 1505 1512 1511 1511 1514 1514 1510 1511 1525 1537 1537 1536 1540 1540 1538 1536 1530 1526 1525 1522 1522 1522 1520 1520 1519 1519 1521 1521 1521 1523 1524 1525 1526
1514 1512 1512 1512 1513 1513 1514 1514 1515 1517 1517 1518 1525 1528 1523 1516 1511 1508 1505 1503 1503 1502 1505 1510 1506 1507 1512 1510 1507 1504 1500 1501 1503 1505 1508 1509 1510 1509 1507 1505 1503 1502 1503 1508 1514 1517 1521 1521 1510 1506 1507 1502 1499 1500 1499 1501 1506 1511 1515 1513 1509 1509 1512 1520 1532 1538 1541 1547 1544 1540 1541 1538 1537 1534 1526 1524 1525 1523 1522 1520 1520 1523 1522 1522 1523 1523 1525 1525
1513 1512 1512 1512 1513 1514 1514 1514 1515 1516 1517 1519 1525 1524 1518 1513 1506 1503 1503 1502 1502 1501 1506 1511 1507 1505 1510 1512 1510 1506 1503 1507 1507 1507 1510 1511 1511 1508 1506 1506 1503 1502 1501 1503 1510 1512 1515 1522 1515 1506 1508 1506 1499 1503 1507 1503 1502 1507 1510 1508 1510 1519 1524 1525 1533 1539 1546 1554 1550 1542 1542 1540 1537 1533 1526 1525 1526 1523 1523 1522 1522 1524 1523 1523 1523 1524 1525 1525
1513 1512 1512 1512 1514 1514 1514 1515 1515 1516 1517 1521 1526 1522 1515 1510 1504 1502 1503 1502 1502 1503 1506 1508 1506 1505 1506 1508 1509 1506 1505 1508 1508 1509 1510 1511 1512 1508 1505 1506 1504 1503 1502 1501 1508 1511 1513 1523 1522 1509 1506 1508 1505 1509 1516 1512 1505 1504 1507 1508 1511 1519 1524 1526 1532 1537 1542 1553 1555 1548 1545 1541 1532 1527 1524 1523 1523 1522 1522 1523 1523 1524 1523 1523 1523 1524 1525 1525
1514 1513 1513 1512 1513 1514 1514 1515 1515 1517 1519 1521 1523 1518 1512 1509 1504 1500 1500 1501 1501 1502 1504 1505 1504 1506 1507 1506 1507 1506 1506 1507 1507 1508 1510 1510 1511 1508 1504 1504 1504 1503 1502 1502 1507 1511 1512 1521 1525 1515 1508 1512 1514 1514 1515 1515 1511 1510 1513 1517 1517 1517 1521 1525 1530 1533 1535 1545 1552 1552 1553 1543 1527 1521 1521 1519 1519 1520 1520 1521 1522 1523 1523 1522 1523 1524 1524 1525
1515 1514 1514 1513 1513 1514 1514 1515 1516 1517 1519 1519 1518 1515 1512 1510 1505 1500 1498 1499 1498 1498 1498 1500 1501 1504 1506 1507 1507 1505 1506 1508 1507 1508 1511 1510 1511 1511 1505 1502 1503 1503 1503 1506 1509 1512 1514 1518 1523 1521 1516 1517 1518 1512 1510 1510 1511 1512 1516 1520 1521 1519 1523 1532 1538 1536 1534 1539 1545 1549 1553 1542 1522 1518 1519 1517 1517 1518 1517 1518 1520 1521 1521 1522 1523 1523 1523 1524
1516 1515 1514 1513 1514 1514 1514 1515 1516 1517 1517 1517 1515 1513 1511 1510 1506 1502 1499 1497 1496 1494 1494 1496 1498 1501 1503 1505 1506 1506 1507 1509 1509 1509 1511 1510 1509 1509 1505 1502 1502 1502 1504 1510 1512 1511 1513 1517 1522 1524 1521 1519 1517 1512 1510 1510 1509 1511 1514 1518 1521 1522 1524 1534 1541 1539 1536 1540 1542 1544 1549 1538 1521 1518 1518 1516 1516 1516 1516 1517 1518 1519 1520 1521 1521 1522 1522 1523
1517 1515 1513 1514 1514 1513 1515 1517 1517 1517 1516 1514 1513 1511 1510 1509 1506 1504 1502 1499 1496 1494 1494 1496 1497 1499 1501 1502 1504 1506 1507 1509 1510 1510 1511 1510 1507 1505 1503 1502 1502 1503 1506 1512 1513 1510 1513 1520 1524 1526 1523 1518 1513 1510 1510 1509 1510 1514 1517 1518 1520 1522 1523 1528 1533 1535 1538 1542 1542 1545 1549 1537 1520 1518 1518 1516 1516 1516 1516 1516 1516 1519 1519 1519 1520 1520 1521 1522
1517 1515 1513 1513 1514 1513 1515 1517 1517 1517 1516 1513 1512 1511 1509 1508 1505 1504 1503 1500 1496 1495 1495 1496 1496 1497 1499 1499 1501 1505 1507 1511 1512 1509 1509 1511 1508 1505 1503 1502 1502 1505 1507 1511 1511 1510 1516 1524 1527 1531 1535 1531 1527 1524 1519 1515 1516 1520 1521 1520 1520 1521 1523 1526 1530 1532 1538 1544 1543 1546 1549 1537 1522 1519 1518 1516 1517 1517 1517 1517 1516 1517 1518 1518 1519 1519 1520 1521
1518 1516 1513 1512 1513 1513 1514 1515 1515 1516 1515 1514 1514 1512 1509 1506 1502 1502 1501 1498 1495 1494 1495 1496 1494 1494 1496 1498 1501 1504 1505 1509 1511 1509 1509 1510 1509 1506 1504 1503 1503 1504 1506 1508 1508 1508 1516 1523 1525 1532 1543 1546 1544 1540 1532 1524 1522 1523 1522 1521 1521 1522 1523 1525 1531 1534 1538 1543 1542 1541 1542 1534 1522 1520 1518 1517 1518 1517 1517 1517 1516 1517 1517 1517 1518 1518 1519 1520
1521 1520 1517 1514 1512 1513 1514 1514 1515 1516 1515 1516 1515 1511 1509 1507 1502 1499 1498 1495 1493 1492 1493 1494 1492 1494 1498 1500 1503 1506 1505 1506 1508 1508 1509 1509 1509 1507 1505 1504 1504 1505 1506 1507 1506 1509 1516 1521 1522 1527 1534 1537 1535 1530 1525 1523 1524 1524 1523 1522 1522 1524 1524 1525 1533 1537 1538 1542 1541 1535 1534 1532 1526 1522 1521 1518 1518 1517 1516 1516 1517 1516 1516 1516 1517 1518 1518 1518
1524 1523 1522 1520 1516 1515 1515 1514 1515 1516 1516 1517 1516 1511 1508 1508 1504 1500 1497 1495 1494 1492 1492 1493 1493 1496 1501 1502 1504 1507 1506 1506 1507 1508 1509 1508 1508 1508 1507 1505 1505 1506 1506 1507 1507 1510 1517 1522 1523 1524 1525 1525 1524 1522 1520 1521 1521 1522 1522 1522 1522 1524 1524 1526 1531 1532 1534 1541 1541 1533 1531 1534 1528 1522 1521 1519 1517 1516 1515 1515 1515 1515 1515 1516 1516 1517 1517 1517
1525 1524 1524 1524 1523 1520 1519 1517 1517 1517 1515 1515 1514 1510 1508 1508 1506 1504 1500 1496 1494 1493 1494 1496 1495 1496 1498 1499 1502 1506 1507 1509 1510 1509 1508 1508 1508 1510 1509 1507 1507 1506 1506 1508 1508 1510 1518 1524 1523 1522 1522 1520 1520 1521 1520 1519 1520 1520 1520 1519 1520 1523 1524 1524 1527 1528 1529 1534 1534 1529 1529 1532 1526 1520 1519 1517 1515 1514 1514 1513 1514 1513 1513 1514 1515 1516 1516 1516
1526 1525 1524 1524 1523 1522 1521 1519 1518 1517 1515 1513 1512 1510 1508 1507 1506 1504 1501 1498 1498 1496 1496 1499 1499 1497 1496 1496 1499 1504 1507 1509 1511 1510 1508 1508 1509 1510 1512 1511 1509 1507 1507 1509 1509 1510 1516 1522 1521 1520 1521 1519 1518 1519 1519 1519 1520 1518 1517 1517 1518 1520 1521 1521 1523 1525 1526 1526 1525 1525 1529 1528 1522 1518 1516 1514 1513 1513 1513 1513 1513 1512 1513 1513 1514 1514 1514 1515
1528 1527 1526 1524 1523 1521 1520 1519 1518 1517 1514 1513 1512 1510 1507 1506 1505 1503 1500 1500 1502 1500 1497 1499 1500 1498 1497 1497 1498 1502 1503 1503 1505 1505 1504 1506 1508 1508 1510 1511 1509 1508 1509 1510 1511 1511 1515 1521 1522 1520 1523 1523 1519 1518 1518 1520 1521 1518 1517 1519 1520 1521 1523 1523 1523 1525 1525 1525 1525 1526 1528 1524 1517 1515 1514 1512 1512 1513 1513 1513 1512 1513 1513 1513 1513 1513 1513 1513
1529 1529 1527 1526 1524 1521 1520 1519 1518 1517 1516 1515 1515 1512 1509 1507 1505 1503 1501 1499 1501 1502 1500 1500 1499 1497 1498 1499 1500 1501 1501 1500 1501 1499 1498 1501 1504 1504 1505 1506 1505 1508 1509 1510 1512 1511 1514 1521 1521 1521 1528 1528 1522 1521 1520 1517 1519 1520 1519 1519 1518 1519 1522 1521 1520 1520 1521 1522 1524 1527 1526 1521 1514 1513 1513 1512 1512 1512 1512 1512 1511 1512 1512 1512 1512 1512 1512 1513
1528 1528 1527 1527 1525 1522 1521 1520 1519 1519 1519 1518 1517 1514 1512 1509 1505 1503 1503 1500 1498 1499 1500 1499 1497 1497 1500 1502 1501 1500 1499 1498 1498 1498 1497 1498 1499 1499 1501 1502 1503 1505 1508 1510 1512 1512 1513 1518 1519 1523 1532 1530 1524 1524 1522 1518 1525 1528 1520 1514 1514 1515 1518 1518 1516 1516 1516 1517 1521 1523 1521 1516 1512 1512 1513 1512 1511 1512 1511 1510 1510 1510 1511 1511 1512 1512 1512 1512